Temp
-11 -11 -11 -11 -11 -11 -11 -11 -11 -11 -11 -11 -11 -11 -11 -11 -11 -11 -11 -11 -11 -11 -12 -11 -11 -11 -11 -11 -11 -11 -11 -11 -12 -11 -11 -11 -11 -11 -10 -10 -10 -10 -10 -11 -11 -11 -10 -10 -10 -10 -10 -9 -10 -10
-11 -11 -11 -11 -11 -11 -11 -11 -11 -11 -11 -11 -11 -11 -11 -11 -11 -11 -11 -11 -11 -11 -12 -11 -12 -11 -11 -12 -11 -12 -12 -12 -12 -12 -12 -11 -11 -11 -11 -11 -11 -10 -11 -11 -11 -10 -12 -10 -9 -9 -9 -9 -10 -10
-12 -11 -11 -11 -11 -11 -11 -11 -12 -11 -11 -11 -11 -11 -11 -11 -10 -10 -10 -10 -10 -11 -11 -12 -12 -12 -12 -12 -12 -12 -12 -12 -12 -12 -12 -12 -12 -11 -11 -11 -11 -11 -11 -11 -11 -12 -11 -11 -10 -10 -9 -9 -9 -10
-12 -12 -12 -12 -12 -12 -11 -11 -12 -12 -11 -11 -11 -11 -10 -10 -10 -10 -10 -10 -10 -11 -11 -11 -12 -12 -12 -12 -12 -12 -13 -13 -13 -13 -12 -12 -12 -12 -12 -12 -11 -11 -11 -10 -10 -11 -11 -11 -11 -9 -8 -8 -8 -8
-12 -12 -12 -12 -12 -12 -12 -12 -12 -12 -11 -11 -11 -11 -10 -10 -10 -10 -10 -11 -11 -11 -12 -12 -12 -12 -12 -12 -12 -13 -13 -13 -13 -13 -13 -12 -12 -12 -12 -12 -11 -11 -11 -11 -10 -11 -11 -11 -10 -10 -10 -10 -9 -9
-12 -12 -12 -12 -12 -12 -12 -12 -12 -12 -12 -11 -11 -11 -11 -11 -11 -11 -11 -11 -12 -12 -12 -12 -12 -13 -13 -13 -13 -13 -13 -13 -13 -13 -13 -13 -13 -13 -12 -12 -12 -12 -11 -11 -11 -11 -12 -12 -11 -10 -10 -10 -10 -10
-12 -12 -12 -12 -12 -12 -12 -12 -12 -12 -12 -12 -11 -11 -11 -11 -11 -11 -12 -12 -12 -12 -13 -13 -13 -13 -13 -13 -13 -13 -13 -13 -13 -14 -13 -13 -13 -13 -12 -11 -12 -12 -12 -11 -10 -11 -11 -11 -11 -11 -10 -10 -10 -10
-12 -12 -12 -12 -12 -12 -12 -12 -12 -12 -12 -12 -12 -11 -11 -11 -11 -12 -12 -12 -13 -13 -13 -13 -13 -13 -13 -14 -13 -13 -14 -14 -13 -13 -13 -14 -13 -13 -12 -12 -12 -12 -11 -11 -11 -11 -11 -11 -11 -9 -9 -10 -10 -10
-12 -12 -12 -12 -12 -12 -12 -12 -12 -12 -12 -12 -12 -12 -12 -12 -12 -12 -12 -13 -13 -13 -14 -14 -13 -13 -14 -14 -14 -14 -14 -15 -15 -14 -13 -14 -14 -13 -13 -12 -11 -11 -11 -11 -11 -11 -11 -11 -10 -10 -11 -10 -9 -9
-12 -12 -12 -12 -12 -12 -12 -12 -12 -12 -12 -12 -12 -12 -12 -12 -12 -12 -13 -13 -13 -14 -14 -14 -14 -14 -14 -14 -14 -15 -15 -15 -15 -15 -13 -13 -13 -13 -13 -13 -12 -11 -11 -11 -11 -11 -11 -11 -11 -10 -10 -10 -10 -10
-12 -12 -12 -12 -12 -12 -12 -12 -12 -12 -12 -12 -12 -12 -12 -12 -13 -13 -13 -13 -14 -14 -14 -15 -15 -15 -14 -14 -14 -15 -15 -15 -15 -14 -13 -14 -14 -13 -13 -13 -12 -12 -12 -12 -12 -11 -10 -11 -11 -11 -10 -10 -10 -10
-12 -12 -12 -12 -12 -12 -12 -12 -12 -12 -12 -12 -12 -12 -12 -13 -13 -13 -13 -14 -14 -14 -14 -15 -15 -15 -14 -14 -14 -14 -15 -15 -15 -14 -14 -14 -15 -14 -14 -13 -13 -12 -12 -12 -12 -11 -11 -11 -11 -11 -11 -10 -11 -10
-12 -12 -12 -12 -12 -12 -12 -12 -12 -12 -12 -12 -12 -13 -13 -13 -13 -13 -14 -14 -14 -14 -15 -15 -15 -15 -15 -14 -14 -14 -14 -14 -14 -14 -14 -14 -14 -14 -14 -14 -13 -13 -13 -13 -12 -12 -11 -12 -11 -11 -11 -10 -11 -11
-12 -12 -12 -12 -12 -12 -12 -12 -12 -13 -13 -12 -12 -13 -13 -13 -13 -13 -14 -14 -14 -15 -15 -16 -15 -15 -15 -15 -14 -14 -15 -14 -14 -14 -14 -14 -13 -13 -14 -14 -13 -13 -13 -13 -12 -12 -12 -12 -10 -10 -10 -11 -11 -11
-12 -12 -12 -12 -12 -12 -12 -12 -13 -13 -13 -13 -13 -13 -13 -13 -13 -14 -14 -14 -15 -15 -15 -15 -15 -15 -14 -15 -15 -15 -15 -14 -14 -15 -15 -14 -14 -14 -14 -14 -14 -14 -13 -13 -12 -12 -12 -11 -11 -10 -10 -11 -11 -11
-13 -13 -12 -13 -12 -12 -12 -13 -13 -13 -13 -13 -13 -13 -13 -13 -14 -14 -14 -14 -15 -15 -15 -15 -15 -14 -14 -15 -15 -15 -15 -15 -14 -14 -15 -15 -15 -14 -14 -14 -14 -14 -14 -13 -13 -12 -12 -13 -12 -12 -11 -11 -11 -11
-13 -13 -13 -13 -13 -13 -13 -13 -13 -13 -13 -13 -13 -13 -13 -14 -14 -14 -15 -15 -15 -15 -15 -15 -14 -14 -14 -14 -15 -15 -15 -15 -15 -15 -15 -15 -15 -14 -14 -14 -14 -14 -14 -14 -14 -13 -13 -13 -12 -12 -12 -12 -12 -11
-13 -13 -13 -13 -13 -13 -13 -14 -13 -14 -13 -13 -13 -13 -14 -14 -14 -14 -15 -15 -15 -15 -15 -15 -15 -15 -14 -14 -15 -14 -15 -15 -15 -14 -15 -15 -15 -15 -15 -14 -14 -14 -13 -14 -14 -14 -13 -13 -13 -13 -12 -12 -12 -11
-13 -13 -13 -14 -14 -14 -14 -14 -13 -14 -13 -13 -14 -14 -14 -14 -15 -15 -15 -15 -15 -16 -15 -15 -15 -15 -15 -15 -15 -15 -15 -15 -15 -15 -15 -15 -15 -14 -14 -14 -13 -13 -13 -12 -12 -13 -13 -12 -12 -12 -12 -12 -12 -12
-13 -13 -14 -14 -14 -14 -14 -14 -13 -14 -13 -14 -14 -14 -14 -14 -14 -14 -15 -16 -16 -16 -15 -15 -15 -14 -15 -15 -15 -15 -15 -15 -15 -15 -15 -15 -15 -15 -14 -14 -14 -14 -13 -12 -12 -12 -13 -13 -13 -12 -13 -13 -12 -12
-14 -15 -14 -14 -14 -14 -14 -14 -14 -14 -14 -14 -14 -14 -14 -14 -15 -15 -16 -16 -16 -15 -15 -15 -15 -14 -15 -15 -15 -15 -15 -15 -15 -15 -15 -15 -15 -14 -14 -14 -14 -14 -13 -13 -13 -12 -12 -12 -12 -13 -13 -13 -13 -13
-15 -15 -15 -15 -14 -14 -14 -14 -14 -14 -14 -14 -14 -14 -15 -15 -15 -15 -15 -16 -15 -15 -15 -15 -15 -14 -15 -15 -15 -15 -15 -15 -15 -15 -15 -15 -15 -15 -15 -14 -13 -13 -13 -13 -13 -13 -13 -13 -13 -12 -12 -13 -13 -13
-15 -15 -15 -14 -14 -14 -14 -14 -14 -14 -14 -14 -15 -15 -15 -15 -15 -15 -16 -16 -15 -16 -15 -15 -15 -14 -14 -15 -15 -14 -15 -15 -15 -15 -15 -15 -15 -15 -15 -14 -14 -14 -14 -14 -14 -14 -14 -14 -13 -13 -13 -13 -13 -13
-15 -15 -14 -14 -14 -14 -14 -14 -14 -14 -14 -14 -15 -15 -15 -15 -15 -16 -16 -15 -15 -16 -16 -15 -15 -14 -15 -15 -15 -15 -15 -15 -15 -15 -15 -15 -15 -14 -14 -14 -14 -14 -14 -14 -14 -14 -14 -14 -14 -14 -14 -13 -13 -13
-15 -15 -15 -14 -14 -14 -14 -14 -14 -14 -15 -15 -15 -15 -16 -16 -16 -16 -16 -15 -15 -15 -15 -15 -15 -16 -16 -16 -16 -16 -16 -15 -15 -15 -15 -15 -16 -15 -14 -14 -14 -14 -14 -14 -14 -14 -14 -14 -14 -14 -14 -15 -14 -14
-15 -15 -15 -14 -14 -14 -14 -14 -15 -14 -14 -15 -15 -16 -16 -16 -16 -16 -16 -16 -16 -16 -15 -15 -15 -15 -16 -16 -16 -16 -16 -16 -16 -16 -16 -16 -15 -15 -15 -15 -15 -14 -14 -14 -14 -14 -14 -14 -14 -14 -14 -14 -14 -14
-15 -15 -15 -14 -14 -14 -14 -14 -15 -15 -15 -15 -15 -16 -16 -16 -16 -16 -16 -16 -16 -16 -16 -16 -16 -16 -16 -16 -16 -16 -16 -16 -16 -16 -15 -15 -15 -16 -16 -15 -15 -15 -15 -15 -15 -15 -14 -14 -14 -14 -14 -14 -15 -15
-15 -15 -14 -14 -15 -14 -14 -15 -15 -15 -15 -15 -15 -15 -16 -16 -16 -16 -16 -16 -16 -16 -16 -16 -16 -16 -16 -16 -16 -16 -17 -17 -16 -16 -16 -16 -16 -16 -16 -16 -16 -16 -16 -16 -15 -15 -15 -15 -15 -15 -15 -15 -15 -15
-15 -14 -14 -15 -14 -14 -15 -15 -15 -15 -15 -15 -15 -15 -16 -16 -16 -16 -16 -16 -16 -16 -17 -16 -16 -16 -16 -16 -16 -16 -17 -17 -17 -16 -16 -16 -16 -17 -16 -16 -16 -16 -16 -16 -15 -15 -15 -15 -15 -16 -16 -16 -16 -16
-14 -14 -14 -14 -15 -15 -15 -14 -14 -15 -15 -15 -15 -15 -16 -16 -16 -16 -16 -16 -16 -16 -17 -16 -16 -16 -16 -16 -16 -16 -16 -17 -17 -16 -16 -16 -16 -16 -16 -17 -16 -16 -16 -16 -16 -16 -16 -16 -16 -15 -15 -16 -16 -16
-14 -14 -14 -14 -14 -15 -15 -14 -15 -15 -15 -15 -16 -16 -15 -15 -15 -16 -16 -16 -16 -16 -17 -16 -16 -16 -16 -16 -16 -16 -16 -17 -16 -16 -16 -16 -16 -16 -16 -16 -16 -16 -16 -16 -16 -16 -16 -16 -16 -16 -16 -16 -16 -17
-14 -14 -14 -14 -14 -15 -15 -15 -16 -15 -15 -15 -15 -15 -15 -15 -15 -15 -16 -16 -16 -16 -16 -16 -16 -16 -16 -17 -17 -17 -17 -16 -16 -16 -16 -16 -16 -16 -16 -17 -17 -17 -16 -16 -17 -16 -17 -17 -17 -17 -17 -17 -17 -17
-14 -14 -14 -14 -14 -15 -15 -15 -15 -15 -15 -15 -16 -15 -15 -15 -16 -16 -16 -16 -16 -16 -17 -17 -17 -17 -17 -17 -17 -17 -17 -17 -17 -17 -17 -17 -17 -16 -17 -17 -17 -17 -17 -17 -17 -17 -17 -17 -17 -17 -17 -17 -17 -17
Height
5802 5802 5802 5801 5801 5800 5799 5798 5796 5794 5792 5790 5788 5786 5784 5782 5779 5777 5777 5775 5775 5775 5772 5770 5771 5770 5768 5768 5768 5769 5770 5768 5767 5765 5766 5767 5768 5768 5770 5772 5772 5772 5772 5773 5773 5772 5773 5776 5772 5772 5776 5782 5789 5795
5799 5799 5798 5797 5797 5796 5795 5793 5791 5789 5787 5784 5782 5780 5778 5776 5774 5771 5768 5769 5769 5768 5768 5764 5761 5759 5760 5758 5758 5759 5760 5759 5757 5756 5757 5758 5760 5761 5762 5763 5765 5765 5765 5764 5766 5765 5760 5761 5765 5767 5768 5772 5776 5781
5794 5794 5793 5792 5791 5791 5789 5787 5786 5784 5782 5780 5777 5775 5773 5770 5768 5765 5762 5762 5760 5761 5761 5757 5752 5749 5748 5748 5746 5751 5748 5745 5748 5745 5746 5748 5750 5752 5753 5755 5755 5756 5756 5756 5756 5758 5753 5753 5751 5754 5755 5758 5764 5765
5788 5788 5788 5787 5786 5785 5784 5782 5780 5779 5777 5775 5772 5769 5766 5763 5761 5759 5756 5755 5754 5753 5752 5748 5744 5741 5739 5737 5736 5736 5737 5735 5736 5733 5733 5738 5742 5742 5743 5745 5745 5747 5749 5750 5751 5753 5751 5745 5743 5746 5746 5748 5748 5751
5783 5783 5782 5781 5781 5780 5779 5777 5775 5774 5772 5770 5767 5764 5761 5758 5756 5753 5750 5749 5747 5747 5745 5740 5736 5734 5732 5730 5726 5725 5724 5723 5723 5723 5723 5727 5730 5730 5732 5734 5736 5740 5742 5743 5746 5746 5742 5741 5738 5739 5740 5739 5735 5738
5777 5776 5776 5775 5775 5774 5773 5772 5770 5768 5766 5764 5762 5759 5756 5753 5751 5748 5745 5743 5741 5739 5738 5735 5731 5727 5724 5719 5717 5713 5711 5713 5712 5712 5714 5716 5719 5718 5720 5724 5729 5731 5733 5735 5739 5737 5735 5735 5734 5736 5730 5728 5723 5722
5770 5770 5769 5768 5768 5767 5766 5766 5764 5762 5761 5759 5756 5753 5750 5748 5745 5743 5741 5738 5734 5732 5730 5727 5723 5720 5715 5711 5707 5703 5699 5698 5699 5700 5702 5705 5708 5704 5710 5716 5723 5724 5725 5728 5732 5731 5730 5729 5730 5728 5724 5720 5717 5713
5763 5763 5763 5762 5762 5761 5760 5759 5758 5756 5755 5753 5750 5747 5745 5742 5740 5737 5734 5731 5728 5725 5723 5720 5716 5713 5708 5702 5697 5692 5687 5683 5683 5686 5689 5693 5696 5695 5702 5713 5711 5715 5717 5722 5724 5724 5726 5725 5725 5722 5720 5720 5720 5719
5755 5756 5756 5756 5755 5755 5754 5753 5752 5751 5749 5747 5745 5742 5740 5738 5735 5732 5729 5726 5722 5721 5715 5713 5708 5704 5701 5694 5688 5680 5675 5669 5666 5670 5676 5680 5685 5689 5699 5698 5703 5709 5712 5716 5718 5719 5721 5720 5722 5718 5716 5716 5717 5720
5747 5748 5749 5749 5748 5748 5747 5746 5745 5745 5744 5742 5739 5737 5735 5733 5730 5727 5724 5721 5717 5713 5709 5706 5701 5696 5693 5687 5682 5676 5670 5663 5657 5660 5664 5671 5679 5683 5689 5692 5698 5703 5706 5709 5709 5711 5717 5717 5717 5717 5717 5716 5716 5717
5738 5740 5741 5741 5741 5741 5740 5739 5739 5738 5737 5736 5734 5732 5731 5728 5725 5722 5719 5717 5712 5708 5705 5701 5696 5693 5688 5683 5678 5673 5667 5662 5659 5657 5657 5665 5671 5678 5682 5686 5691 5697 5698 5702 5702 5705 5710 5712 5712 5712 5712 5714 5714 5716
5729 5731 5733 5733 5733 5734 5733 5733 5732 5732 5731 5730 5729 5727 5725 5724 5721 5718 5714 5710 5707 5703 5700 5696 5692 5687 5683 5679 5674 5672 5667 5664 5661 5661 5661 5662 5670 5675 5677 5681 5683 5689 5690 5691 5693 5699 5702 5703 5703 5706 5708 5709 5713 5714
5721 5723 5724 5726 5726 5727 5726 5726 5726 5726 5725 5724 5723 5722 5721 5719 5716 5712 5710 5706 5701 5697 5693 5690 5686 5683 5680 5678 5673 5669 5667 5666 5664 5662 5663 5664 5665 5669 5672 5675 5677 5680 5681 5684 5688 5692 5692 5695 5696 5698 5701 5705 5710 5713
5712 5715 5716 5717 5719 5719 5719 5719 5720 5720 5719 5718 5717 5717 5715 5713 5711 5708 5706 5702 5697 5693 5689 5686 5684 5680 5676 5674 5671 5667 5665 5664 5663 5662 5663 5663 5664 5664 5665 5667 5669 5672 5674 5676 5679 5682 5685 5688 5695 5693 5693 5697 5704 5706
5703 5706 5708 5709 5711 5712 5713 5713 5714 5714 5714 5713 5712 5711 5710 5708 5707 5704 5701 5697 5693 5689 5686 5684 5681 5677 5673 5670 5667 5665 5663 5661 5661 5661 5661 5658 5657 5660 5661 5661 5662 5664 5666 5669 5671 5672 5676 5679 5683 5685 5687 5691 5695 5698
5695 5698 5700 5701 5703 5705 5707 5707 5708 5708 5708 5707 5706 5706 5704 5703 5702 5699 5695 5691 5687 5685 5682 5679 5675 5671 5668 5666 5663 5661 5659 5656 5656 5655 5655 5655 5654 5655 5656 5656 5656 5657 5658 5660 5664 5666 5667 5670 5674 5678 5682 5687 5691 5694
5687 5690 5692 5694 5696 5699 5700 5702 5702 5702 5701 5701 5701 5700 5699 5698 5697 5694 5690 5687 5685 5681 5677 5675 5671 5666 5662 5659 5656 5654 5651 5649 5648 5648 5649 5649 5650 5650 5651 5651 5651 5652 5652 5654 5656 5660 5664 5666 5670 5673 5677 5681 5682 5685
5679 5682 5685 5687 5690 5693 5694 5696 5697 5697 5695 5695 5695 5694 5693 5692 5691 5688 5686 5683 5680 5676 5673 5671 5668 5663 5657 5653 5649 5645 5641 5638 5639 5639 5641 5642 5644 5646 5647 5648 5649 5649 5650 5651 5653 5654 5657 5659 5663 5664 5668 5675 5677 5680
5671 5675 5678 5681 5685 5687 5689 5691 5692 5692 5690 5691 5690 5689 5688 5687 5686 5685 5682 5679 5676 5673 5671 5667 5662 5659 5654 5649 5645 5641 5637 5634 5633 5632 5634 5635 5636 5638 5639 5640 5642 5643 5645 5647 5649 5651 5651 5652 5654 5657 5661 5666 5671 5675
5664 5668 5673 5677 5680 5683 5684 5686 5686 5686 5686 5687 5685 5683 5682 5682 5682 5681 5679 5676 5672 5670 5667 5662 5659 5655 5651 5645 5641 5637 5634 5631 5629 5627 5627 5628 5630 5631 5632 5633 5634 5635 5638 5641 5643 5645 5647 5648 5649 5651 5655 5657 5661 5665
5658 5664 5669 5673 5676 5678 5679 5680 5681 5682 5681 5680 5680 5679 5678 5678 5677 5675 5672 5671 5669 5665 5661 5659 5656 5652 5648 5642 5639 5634 5631 5628 5626 5625 5623 5622 5622 5623 5624 5626 5627 5629 5632 5635 5638 5640 5642 5644 5645 5647 5650 5652 5655 5658
5658 5662 5666 5669 5671 5673 5675 5676 5677 5677 5677 5676 5676 5675 5674 5673 5672 5671 5669 5667 5664 5661 5658 5657 5653 5649 5645 5640 5637 5633 5629 5626 5624 5621 5619 5618 5617 5617 5617 5618 5620 5622 5625 5629 5632 5634 5637 5640 5641 5643 5645 5647 5649 5651
5654 5659 5662 5665 5668 5669 5672 5672 5673 5673 5672 5672 5671 5671 5670 5669 5668 5667 5665 5663 5660 5659 5657 5656 5652 5647 5642 5639 5637 5632 5627 5624 5621 5618 5617 5617 5614 5613 5614 5614 5616 5618 5621 5625 5628 5630 5633 5635 5636 5639 5641 5642 5644 5645
5652 5655 5658 5661 5664 5666 5667 5668 5669 5669 5668 5668 5667 5667 5666 5665 5664 5663 5661 5659 5657 5656 5656 5654 5650 5647 5644 5641 5636 5631 5627 5624 5622 5619 5617 5615 5612 5613 5613 5613 5614 5617 5620 5621 5622 5624 5626 5629 5631 5633 5634 5635 5636 5639
5650 5654 5657 5659 5661 5663 5663 5664 5664 5664 5664 5663 5663 5663 5663 5662 5661 5659 5656 5654 5652 5653 5655 5653 5650 5647 5645 5641 5639 5636 5632 5629 5626 5622 5619 5618 5616 5614 5611 5608 5610 5611 5611 5613 5617 5618 5620 5624 5626 5627 5628 5630 5632 5634
5647 5652 5654 5656 5657 5659 5659 5660 5660 5660 5660 5659 5659 5659 5659 5659 5657 5655 5653 5652 5650 5652 5652 5652 5650 5647 5646 5644 5642 5639 5637 5635 5633 5629 5625 5622 5621 5619 5618 5615 5613 5612 5613 5613 5615 5616 5619 5621 5623 5622 5624 5627 5631 5632
5647 5649 5651 5652 5654 5655 5656 5656 5656 5656 5656 5657 5656 5655 5656 5655 5654 5653 5652 5650 5650 5651 5651 5650 5649 5648 5647 5646 5644 5642 5640 5638 5637 5635 5632 5630 5626 5624 5622 5622 5621 5620 5620 5619 5619 5619 5621 5622 5624 5627 5629 5631 5632 5635
5643 5646 5648 5650 5651 5652 5652 5653 5652 5651 5652 5653 5653 5653 5654 5653 5652 5652 5651 5650 5649 5649 5650 5651 5649 5647 5647 5648 5646 5644 5642 5640 5639 5638 5637 5635 5631 5630 5630 5629 5628 5627 5626 5626 5626 5626 5626 5626 5626 5628 5630 5632 5634 5635
5641 5644 5646 5647 5647 5648 5649 5649 5648 5648 5650 5649 5650 5650 5651 5649 5649 5648 5648 5646 5645 5648 5649 5649 5647 5644 5646 5647 5647 5646 5646 5645 5644 5643 5642 5640 5638 5636 5634 5633 5633 5633 5632 5631 5630 5630 5632 5633 5634 5635 5635 5635 5636 5636
5640 5642 5643 5644 5645 5645 5645 5644 5644 5646 5646 5647 5647 5647 5648 5648 5646 5645 5645 5645 5645 5646 5646 5647 5646 5646 5646 5646 5646 5646 5646 5646 5645 5645 5643 5641 5641 5640 5639 5638 5637 5636 5636 5636 5635 5633 5633 5633 5633 5633 5634 5635 5635 5634
5638 5639 5640 5641 5641 5640 5640 5641 5642 5642 5642 5642 5643 5644 5644 5643 5642 5643 5642 5642 5642 5644 5646 5645 5644 5645 5647 5644 5644 5645 5645 5645 5645 5645 5644 5643 5641 5641 5640 5639 5639 5637 5636 5636 5636 5635 5634 5633 5633 5632 5631 5632 5632 5631
5636 5637 5637 5637 5637 5637 5636 5637 5638 5639 5639 5639 5640 5640 5642 5641 5641 5640 5641 5641 5641 5641 5642 5643 5644 5644 5644 5644 5644 5644 5644 5643 5643 5643 5643 5643 5643 5643 5642 5640 5639 5638 5637 5637 5635 5634 5633 5632 5630 5629 5629 5627 5626 5626
5633 5634 5634 5634 5634 5634 5634 5634 5635 5636 5637 5638 5639 5639 5639 5639 5639 5638 5638 5638 5638 5637 5637 5639 5641 5643 5643 5643 5643 5644 5643 5643 5644 5643 5642 5641 5642 5643 5642 5641 5640 5639 5638 5636 5634 5633 5631 5629 5627 5626 5624 5623 5622 5622
Wind_Speed
11 11 11 12 11 12 13 16 18 20 21 22 22 22 21 21 21 21 19 20 19 17 22 23 22 25 27 28 28 27 29 30 30 32 32 30 30 31 29 27 26 28 30 32 31 35 36 25 29 34 35 41 39 39
13 13 13 14 15 16 18 19 20 20 21 22 22 21 20 19 22 24 24 19 19 19 20 24 27 28 27 29 28 27 27 28 34 35 35 34 31 29 28 28 24 23 24 26 26 29 33 33 31 33 39 47 47 45
19 19 19 19 20 19 19 19 19 18 15 17 20 20 22 26 26 23 23 22 23 20 19 25 29 32 33 32 33 29 30 34 31 35 37 36 34 31 29 25 25 25 24 26 23 20 29 32 38 27 40 52 46 49
18 18 18 18 18 18 17 17 17 17 19 22 20 22 22 22 21 23 24 21 21 20 18 21 25 28 31 32 33 33 33 35 34 38 38 34 34 34 32 30 31 28 27 24 23 23 22 31 33 22 25 32 44 51
20 19 19 19 18 18 18 18 18 20 22 20 21 22 21 21 20 19 20 21 21 21 15 19 24 25 26 27 30 31 34 35 38 39 38 34 34 37 35 33 33 27 26 26 20 19 20 21 27 33 31 32 42 44
19 20 21 21 19 18 19 20 20 21 21 21 23 23 22 19 18 19 20 20 19 19 19 22 24 26 28 27 29 33 34 31 38 38 41 38 32 37 37 35 29 27 27 25 18 16 20 15 12 20 23 30 39 47
22 21 20 20 20 20 20 19 20 20 21 22 24 22 20 19 20 20 19 20 22 23 21 22 24 25 25 27 30 29 31 33 32 35 37 36 37 41 37 34 24 25 27 24 16 13 15 13 14 10 18 4 2 9
23 22 21 21 20 20 20 20 20 21 21 21 22 19 17 19 19 18 18 21 22 22 23 23 25 26 29 29 30 31 34 36 39 37 36 36 36 41 37 25 30 28 26 20 18 16 15 10 13 3 11 1 5 7
23 23 22 22 22 21 21 20 19 20 21 20 20 17 16 18 19 18 20 23 23 23 25 24 26 27 29 27 28 26 19 23 27 36 36 35 36 35 29 32 32 27 25 23 17 17 11 13 7 3 7 2 1 4
26 26 24 23 22 22 22 21 20 19 19 19 18 15 17 18 18 19 20 22 21 22 23 24 27 30 30 30 26 20 19 22 10 22 33 36 29 27 29 31 29 27 26 21 19 18 11 13 11 6 6 7 12 14
28 27 25 24 24 23 22 21 20 18 18 18 17 16 16 18 19 19 20 21 21 21 21 23 24 22 24 24 24 23 18 14 18 17 12 27 33 30 26 28 25 23 23 21 21 21 16 16 16 15 13 12 15 18
29 28 26 25 26 24 22 21 19 18 19 18 17 15 16 18 18 19 20 22 22 21 20 20 22 22 22 22 23 18 17 12 12 10 8 14 14 17 18 21 22 21 23 21 22 18 16 18 18 17 19 17 13 16
28 28 26 25 24 23 22 20 19 18 18 18 17 15 16 17 17 19 21 22 24 23 21 19 21 21 20 17 19 17 15 13 5 4 6 4 10 11 17 17 18 20 19 20 19 15 10 16 22 21 21 19 18 15
29 28 24 26 24 22 21 19 18 17 17 17 16 14 16 17 18 19 19 21 24 22 19 19 20 20 20 19 15 15 15 12 9 5 6 7 9 13 19 20 20 20 22 23 22 24 29 26 17 25 25 21 15 18
28 28 24 25 24 22 20 19 18 16 16 16 15 14 16 18 17 18 19 20 21 19 18 17 18 20 18 18 19 16 15 13 10 8 10 9 7 8 11 15 19 19 18 19 21 25 27 25 24 31 31 26 23 22
26 26 23 24 23 21 19 18 17 16 17 16 15 15 17 17 17 18 19 21 15 18 19 21 21 23 19 21 23 17 15 18 17 16 15 13 13 16 15 13 19 23 21 21 19 19 17 17 22 27 29 27 27 27
26 24 23 23 21 19 18 17 17 16 17 16 15 16 18 18 16 17 19 18 18 18 19 20 21 24 24 29 25 17 20 24 19 19 22 17 13 14 16 18 21 14 18 22 20 19 20 22 21 25 26 25 24 25
26 25 23 22 18 18 17 16 15 14 16 15 15 16 17 18 17 16 19 22 23 20 21 20 21 26 29 25 21 22 22 19 22 27 23 20 18 16 16 15 13 11 16 18 17 17 19 21 20 21 23 23 24 25
27 24 23 20 19 17 16 15 15 14 16 13 15 15 16 17 17 16 18 20 22 20 19 18 22 23 25 24 19 18 16 16 17 18 19 19 19 16 16 19 23 22 24 23 20 20 21 22 22 22 24 23 19 20
27 24 19 18 16 16 15 14 15 13 15 13 15 16 17 17 15 13 19 17 16 17 15 16 20 23 23 20 18 16 12 10 10 13 17 15 13 13 14 14 19 25 26 26 26 26 23 22 24 24 23 23 19 19
19 18 19 16 14 15 13 13 14 12 13 15 15 15 16 15 14 15 13 14 19 15 12 16 19 20 21 21 18 21 13 11 9 10 14 17 17 14 15 16 17 19 21 22 22 23 26 26 24 22 20 20 20 20
17 21 17 16 13 13 12 12 11 11 14 14 14 14 15 17 16 14 16 17 16 10 13 16 17 19 20 17 12 14 13 11 9 12 12 12 11 12 14 16 16 18 19 20 20 19 21 22 23 24 24 20 19 18
21 18 15 14 14 12 11 11 10 11 12 13 13 13 13 15 16 16 17 17 15 14 12 15 13 21 17 13 13 17 17 13 8 10 10 7 6 4 7 11 13 13 14 16 15 17 19 20 22 21 20 18 18 18
20 19 17 15 12 11 11 10 10 10 11 11 11 11 13 14 14 17 15 15 12 5 8 11 15 16 21 19 22 27 24 14 11 12 15 14 10 7 6 9 13 15 16 17 18 16 16 18 17 15 15 16 16 17
15 16 15 11 10 10 10 10 11 10 9 9 10 10 11 10 14 16 16 8 6 4 3 7 8 8 16 23 17 21 26 27 23 14 11 10 12 17 22 7 2 6 10 13 14 14 14 14 15 15 15 14 14 13
15 14 11 10 10 10 9 9 9 10 8 7 8 9 7 10 13 12 9 7 1 1 3 4 1 4 10 20 15 16 20 21 23 24 18 10 6 8 17 14 9 7 10 13 11 10 11 13 14 15 20 23 24 22
11 13 12 10 8 8 8 7 8 10 7 7 6 6 7 9 6 4 8 8 3 2 1 2 4 4 8 10 9 13 14 17 19 18 21 23 29 27 20 20 18 17 16 15 14 13 14 17 21 24 14 10 13 15
16 13 9 6 7 8 8 8 10 10 11 6 6 6 6 6 7 8 8 7 8 8 4 2 2 5 5 4 7 11 11 14 14 14 15 17 20 21 21 22 22 22 19 20 16 16 12 11 12 11 10 9 8 5
16 9 7 8 8 7 8 9 10 11 8 8 8 8 6 4 10 6 5 8 5 5 5 7 6 3 2 3 4 6 7 7 7 6 8 13 13 14 16 17 16 15 14 13 11 9 9 9 8 7 4 3 3 5
13 10 10 9 8 9 11 11 10 7 6 6 6 6 12 5 6 7 8 8 5 8 9 8 4 1 2 3 5 5 6 8 6 3 6 10 12 11 13 14 13 13 12 10 8 7 6 6 5 3 2 1 1 3
10 9 9 10 10 10 11 10 6 6 8 10 10 6 6 8 9 9 8 6 5 5 8 6 2 1 1 4 3 4 5 5 4 4 7 7 8 10 11 13 13 13 12 10 8 7 7 6 5 6 8 7 6 7
8 8 9 11 11 11 11 8 5 10 9 9 7 6 5 6 9 9 11 9 6 6 7 5 5 3 2 2 4 3 4 2 2 3 6 5 3 2 5 10 11 10 7 7 9 10 10 11 12 12 11 12 11 8
7 8 10 11 11 9 12 11 10 10 11 9 9 8 9 9 8 9 10 10 6 10 12 10 7 6 4 3 4 4 5 4 4 6 9 8 5 5 8 7 3 3 5 9 11 12 14 15 14 13 13 11 8 7
Wind_Direction
265 269 274 280 283 288 294 299 301 302 303 304 304 305 305 304 304 302 296 291 290 283 284 283 275 270 267 269 267 266 260 260 260 262 261 260 259 260 264 266 267 270 269 261 269 271 276 265 253 255 248 229 230 238
272 276 279 282 286 289 293 296 298 299 302 304 304 303 301 304 307 304 302 294 287 288 286 284 283 283 283 276 273 268 266 262 260 260 260 262 261 258 261 268 274 270 269 266 270 284 280 264 266 250 243 236 236 239
272 275 279 282 286 289 293 296 298 300 305 316 314 306 297 298 305 302 299 301 297 296 288 281 284 280 278 275 272 270 267 262 262 263 260 258 259 263 266 265 262 263 268 271 277 289 282 280 279 268 238 235 234 240
275 278 281 283 287 291 293 295 293 291 294 307 311 315 311 308 306 306 304 304 305 307 304 291 283 284 288 287 286 279 264 263 257 258 259 257 258 260 261 263 260 260 260 266 276 293 297 285 267 251 236 230 232 240
272 275 278 281 284 289 290 291 291 292 298 302 309 316 313 310 309 309 306 308 310 311 310 296 304 302 298 293 285 276 269 264 258 255 255 255 255 255 258 257 259 265 264 266 278 314 312 295 258 253 253 261 241 240
275 276 274 276 279 284 289 291 293 298 299 301 309 311 311 310 311 310 309 311 310 306 306 305 304 307 300 289 290 289 279 267 260 255 252 251 250 253 253 256 260 267 266 271 278 283 310 329 263 290 281 262 243 240
274 275 278 279 281 283 284 288 292 296 300 305 311 309 310 308 313 311 309 313 311 307 306 309 313 314 306 298 298 295 282 266 257 256 256 249 242 248 250 252 260 264 266 268 268 267 281 297 321 332 359 303 222 285
272 271 274 278 283 285 286 287 289 293 299 306 308 307 306 311 313 311 315 315 312 308 306 308 312 320 323 314 309 299 291 271 260 251 243 245 242 243 246 250 252 255 261 263 263 264 266 282 277 353 4 270 36 66
269 268 271 275 278 282 287 284 286 293 301 308 308 303 307 314 314 315 318 318 313 308 309 309 310 314 327 329 326 322 310 314 257 242 238 234 238 243 240 241 248 258 265 266 267 265 263 264 254 309 268 311 71 80
266 266 266 271 278 279 283 284 282 290 299 306 306 298 310 318 319 317 319 322 317 311 313 314 313 318 323 331 338 335 305 337 301 246 232 227 233 238 235 238 242 249 258 264 260 256 239 249 259 235 263 229 219 220
261 261 263 265 271 280 279 280 278 286 294 303 301 293 306 317 319 319 319 319 319 317 318 311 313 316 317 333 337 347 347 344 -0 327 212 218 230 232 233 239 243 243 251 249 252 251 248 245 240 239 241 242 230 236
262 262 260 264 267 273 277 277 273 280 292 299 298 288 305 315 319 320 321 323 318 314 316 317 317 328 332 330 335 345 353 352 6 54 11 188 213 222 236 241 247 242 245 255 259 263 258 255 247 243 238 242 253 263
255 259 257 260 267 268 275 273 268 277 288 295 294 284 299 311 316 320 321 320 320 322 324 332 330 327 331 323 330 333 341 355 337 309 90 125 197 219 227 231 237 236 238 248 246 262 244 233 247 247 244 241 246 253
250 253 260 258 264 262 269 267 264 275 287 292 290 281 293 305 311 318 323 323 324 322 312 318 327 331 329 329 330 323 324 326 338 280 262 253 242 231 233 226 230 237 247 252 251 248 244 277 265 237 239 246 240 245
246 248 259 258 261 256 263 259 262 273 286 291 286 281 291 302 312 318 318 322 325 325 325 326 329 329 331 337 333 322 307 314 306 301 248 245 211 248 249 245 249 245 239 237 239 243 246 244 227 220 225 235 242 245
241 250 258 250 256 249 252 252 257 273 287 288 283 281 288 300 313 313 322 332 324 321 326 331 326 328 327 332 327 304 304 291 275 281 276 265 259 268 243 244 248 241 237 237 236 241 234 231 221 225 233 232 238 244
237 245 250 249 245 239 243 250 262 275 278 281 283 281 290 302 315 313 316 320 326 321 330 326 322 331 323 323 317 300 274 282 261 245 260 270 270 268 247 261 227 239 248 244 242 239 230 233 233 234 237 239 243 249
234 241 244 238 233 237 239 248 272 272 273 281 279 280 292 302 308 309 315 318 320 329 330 328 334 332 323 325 323 312 307 291 249 250 265 261 249 256 274 266 262 220 247 251 244 241 241 242 241 244 247 244 243 246
234 237 231 217 226 233 244 250 269 268 274 279 278 283 288 297 303 305 314 318 319 317 327 331 331 330 333 331 329 312 305 298 287 260 245 260 249 243 245 243 239 225 225 231 241 246 247 251 253 252 255 253 247 242
225 218 208 210 222 239 247 253 260 266 275 275 271 278 286 293 302 313 316 309 307 314 320 326 326 325 326 332 330 323 314 310 294 274 264 258 242 250 248 242 230 221 225 226 232 240 247 253 259 261 268 270 266 256
193 188 201 211 228 239 237 248 255 276 279 271 277 282 289 297 305 300 289 316 311 319 322 324 321 316 331 326 315 329 318 317 315 288 275 271 266 256 243 235 229 228 228 227 232 236 241 248 257 262 267 271 269 265
179 195 204 223 237 228 242 249 260 277 279 279 280 289 298 300 303 304 304 305 308 313 317 327 332 338 333 331 333 349 334 329 317 319 314 295 278 268 252 238 230 221 222 228 230 230 234 240 247 254 260 260 260 260
188 199 213 222 220 230 250 256 267 281 280 281 280 284 287 289 294 308 307 321 312 293 314 333 346 341 359 16 354 357 354 2 340 323 309 333 306 273 247 247 241 232 223 226 231 239 244 242 239 236 235 240 254 253
202 210 209 207 219 241 257 262 275 288 287 280 276 283 284 293 300 303 312 329 345 320 320 348 15 43 50 32 30 31 30 25 6 5 16 14 355 313 284 252 239 232 230 237 248 251 256 245 230 233 240 245 241 241
191 194 197 212 235 247 253 263 280 294 294 284 283 286 292 297 306 307 294 301 290 244 338 24 70 67 19 13 33 41 42 36 36 43 35 12 37 49 42 60 146 228 234 230 237 240 232 231 243 241 234 224 226 229
195 197 213 226 233 241 252 270 283 295 292 275 267 287 299 310 319 330 355 5 31 315 7 41 225 294 7 16 25 43 42 43 45 48 42 41 76 58 67 70 81 138 180 197 196 222 219 223 222 194 179 167 161 162
197 203 212 223 233 245 263 283 310 303 268 280 284 285 288 308 322 355 335 328 277 225 194 280 315 333 15 10 27 44 38 43 37 39 51 56 63 62 65 72 89 90 106 107 124 135 140 138 154 160 159 162 151 164
213 210 221 228 249 263 276 282 276 277 224 308 298 288 301 311 317 330 332 319 301 270 254 221 20 355 21 47 39 41 43 40 37 34 39 48 55 57 58 57 52 51 62 64 83 74 98 102 102 111 115 131 137 146
216 219 231 240 249 262 277 283 271 263 269 276 264 262 250 302 320 349 9 351 247 239 246 249 232 318 345 35 35 48 68 69 53 36 43 51 58 54 46 46 46 47 47 44 40 45 66 87 108 119 124 141 180 218
229 232 236 245 253 269 287 282 274 260 225 224 252 296 206 295 324 334 335 326 293 197 208 218 189 123 26 34 58 51 49 61 60 65 44 30 38 54 49 35 29 26 29 35 38 23 21 27 19 14 6 342 304 287
225 235 241 251 270 277 279 275 274 257 230 226 223 244 288 304 316 329 341 327 299 182 209 224 204 232 16 28 13 6 35 42 24 43 52 36 21 15 17 14 10 8 9 18 33 32 21 17 11 343 329 320 314 304
226 242 255 267 276 285 284 270 249 222 230 217 237 284 281 289 302 316 317 323 287 225 212 195 193 187 186 256 281 327 334 315 310 8 21 27 77 29 9 4 356 358 8 11 3 356 348 339 332 330 324 318 318 314
245 259 269 272 270 255 262 253 231 220 213 223 254 270 258 269 287 299 300 307 292 221 208 188 187 218 240 283 289 265 260 301 330 352 359 356 353 350 349 2 33 28 5 345 345 343 334 328 324 322 318 317 315 313